Regional Weather Roundup
Issued by NWS

Home | Current Version | Previous Version | Graphics & Text | Print | Product List | Glossary On
Versions: 1 2 3 4 5 6 7 8 9 10 11 12 13 14 15 16 17 18 19 20 21 22 23 24 25 26 27 28 29 30 31 32 33 34 35 36 37 38 39 40 41 42 43 44 45 46 47 48 49 50
000
ASUS43 KBIS 281620
RWRND

NORTH DAKOTA REGIONAL WEATHER ROUNDUP
NATIONAL WEATHER SERVICE BISMARCK ND
1000 AM CST FRI NOV 28 2014

NOTE: "FAIR" INDICATES FEW OR NO CLOUDS BELOW 12,000 FEET WITH NO
SIGNIFICANT WEATHER AND/OR OBSTRUCTIONS TO VISIBILITY.


NDZ001>003-009>011-017-281700-
NORTHWEST NORTH DAKOTA

CITY           SKY/WX    TMP DP  RH WIND       PRES   REMARKS
WILLISTON      CLOUDY    16  12  84 E10       29.65F WCI   4
MINOT          CLOUDY     9   4  80 E15       29.76F WCI  -8
MINOT AFB      CLOUDY     9   6  88 SE14      29.77F WCI  -8
$$

NDZ018>021-031>035-040>046-281700-
SOUTHWEST NORTH DAKOTA

CITY           SKY/WX    TMP DP  RH WIND       PRES   REMARKS
BISMARCK       PTSUNNY   13   8  81 E9        29.78S WCI   1
DICKINSON      CLOUDY    19  16  88 E9        29.61F WCI   8
GARRISON         N/A     12   9  87 E14       29.73F WCI  -3
HETTINGER ARPT CLOUDY    31  25  78 CALM      29.64F
$$

NDZ004>008-012>016-024-026-027-054-281700-
NORTHEAST NORTH DAKOTA

CITY           SKY/WX    TMP DP  RH WIND       PRES   REMARKS
GRAND FORKS    LGT SNOW  12   9  85 E8        29.94F FOG     WCI   1
GRND FRKS AFB  CLOUDY    12   9  85 SE9       29.93F WCI   0
DEVILS LAKE    CLOUDY    10   0  61 SE15G21   29.83F WCI  -6
$$

NDZ022-023-025-028>030-036>039-047>053-281700-
SOUTHEAST NORTH DAKOTA

CITY           SKY/WX    TMP DP  RH WIND       PRES   REMARKS
FARGO          CLOUDY    15   6  67 SE10      29.93S WCI   2
JAMESTOWN      CLOUDY     9   4  80 SE13      29.82F WCI  -7
$$



USA.gov is the U.S. government's official web portal to all federal, state and local government web resources and services.